| time (UTC) | temp F | wind direction | speed MPH | gust MPH | rain 1hr in | rain 24hr in | rain mn in | humidity % | barometer mb |
| 20260506051035 | 52 | 46 | 1.0 | 1.0 | 0.00 | 0.00 | 0.00 | 96 | 1011.3 |
| 20260506050533 | 51 | 26 | 2.0 | 3.0 | 0.00 | 0.00 | 0.00 | 96 | 1011.3 |
| 20260506045023 | 51 | 62 | 1.0 | 1.0 | 0.00 | 0.00 | 0.00 | 96 | 1011.6 |
| 20260506044521 | 51 | 72 | 0.0 | 1.0 | 0.00 | 0.00 | 0.00 | 96 | 1011.8 |
| 20260506044018 | 52 | 73 | 1.0 | 1.0 | 0.00 | 0.00 | 0.00 | 96 | 1011.7 |
| 20260506043515 | 52 | 60 | 1.0 | 1.0 | 0.00 | 0.00 | 0.00 | 96 | 1011.8 |
| 20260506043013 | 52 | 44 | 2.0 | 2.0 | 0.00 | 0.00 | 0.00 | 96 | 1011.7 |
| 20260506042512 | 52 | 52 | 2.0 | 2.0 | 0.00 | 0.00 | 0.00 | 95 | 1011.7 |
| 20260506042010 | 53 | 61 | 2.0 | 3.0 | 0.00 | 0.00 | 0.00 | 95 | 1011.9 |
| 20260506041508 | 52 | 29 | 3.0 | 4.0 | 0.00 | 0.00 | 0.00 | 95 | 1011.9 |
| 20260506041005 | 53 | 53 | 2.0 | 2.0 | 0.00 | 0.00 | 0.00 | 95 | 1011.8 |
| 20260506040503 | 53 | 66 | 2.0 | 2.0 | 0.00 | 0.00 | 0.00 | 95 | 1012.0 |
| 20260506035958 | 53 | 352 | 2.0 | 2.0 | 0.00 | 0.00 | 0.00 | 95 | 1011.8 |
| 20260506035455 | 53 | 63 | 1.0 | 2.0 | 0.00 | 0.00 | 0.00 | 95 | 1011.9 |
| 20260506034951 | 53 | 35 | 1.0 | 2.0 | 0.00 | 0.00 | 0.00 | 95 | 1011.8 |
| 20260506034449 | 53 | 358 | 4.0 | 4.0 | 0.00 | 0.00 | 0.00 | 95 | 1012.0 |
| 20260506033946 | 53 | 36 | 2.0 | 3.0 | 0.00 | 0.00 | 0.00 | 95 | 1012.0 |
| 20260506033444 | 53 | 36 | 4.0 | 4.0 | 0.00 | 0.00 | 0.00 | 95 | 1012.0 |
| 20260506032940 | 53 | 5 | 4.0 | 4.0 | 0.00 | 0.00 | 0.00 | 94 | 1012.1 |
| 20260506032437 | 53 | 14 | 3.0 | 4.0 | 0.00 | 0.00 | 0.00 | 94 | 1012.3 |
| 20260506031934 | 53 | 13 | 8.0 | 10.0 | 0.00 | 0.00 | 0.00 | 94 | 1012.2 |
| 20260506031431 | 53 | 10 | 4.0 | 7.0 | 0.00 | 0.00 | 0.00 | 94 | 1012.4 |
| 20260506030929 | 54 | 332 | 5.0 | 7.0 | 0.00 | 0.00 | 0.00 | 94 | 1012.3 |
| 20260506030427 | 54 | 350 | 5.0 | 6.0 | 0.00 | 0.00 | 0.00 | 94 | 1012.5 |
| 20260506025923 | 54 | 63 | 3.0 | 4.0 | 0.00 | 0.00 | 0.00 | 94 | 1012.5 |
| 20260506025420 | 54 | 65 | 2.0 | 2.0 | 0.00 | 0.00 | 0.00 | 94 | 1012.7 |
| 20260506024917 | 54 | 321 | 4.0 | 6.0 | 0.00 | 0.00 | 0.00 | 94 | 1012.5 |
| 20260506024414 | 54 | 47 | 3.0 | 3.0 | 0.00 | 0.00 | 0.00 | 94 | 1012.6 |
| 20260506023910 | 54 | 1 | 4.0 | 6.0 | 0.00 | 0.00 | 0.00 | 93 | 1012.7 |
| 20260506023407 | 54 | 334 | 5.0 | 7.0 | 0.00 | 0.00 | 0.00 | 94 | 1012.6 |
| 20260506022903 | 54 | 356 | 8.0 | 9.0 | 0.00 | 0.00 | 0.00 | 94 | 1012.6 |
| 20260506022401 | 54 | 35 | 4.0 | 6.0 | 0.00 | 0.00 | 0.00 | 94 | 1012.6 |
| 20260506021859 | 54 | 346 | 4.0 | 4.0 | 0.00 | 0.00 | 0.00 | 94 | 1012.4 |
| 20260506021356 | 55 | 25 | 5.0 | 6.0 | 0.00 | 0.00 | 0.00 | 94 | 1012.3 |
| 20260506020852 | 54 | 14 | 6.0 | 7.0 | 0.00 | 0.00 | 0.00 | 94 | 1012.5 |
| 20260506020351 | 54 | 311 | 4.0 | 6.0 | 0.00 | 0.00 | 0.00 | 94 | 1012.7 |
| 20260506015848 | 55 | 19 | 6.0 | 7.0 | 0.00 | 0.00 | 0.00 | 94 | 1012.7 |
| 20260506015345 | 55 | 33 | 5.0 | 8.0 | 0.00 | 0.00 | 0.00 | 94 | 1012.7 |
| 20260506014842 | 55 | 6 | 5.0 | 6.0 | 0.00 | 0.00 | 0.00 | 94 | 1012.6 |
| 20260506014339 | 55 | 26 | 4.0 | 4.0 | 0.00 | 0.00 | 0.00 | 94 | 1012.7 |
| 20260506013835 | 55 | 21 | 5.0 | 7.0 | 0.00 | 0.00 | 0.00 | 93 | 1012.7 |
| 20260506013333 | 55 | 342 | 5.0 | 8.0 | 0.00 | 0.00 | 0.00 | 93 | 1012.6 |
| 20260506012829 | 55 | 19 | 8.0 | 10.0 | 0.00 | 0.00 | 0.00 | 93 | 1012.6 |
| 20260506012326 | 55 | 33 | 5.0 | 6.0 | 0.00 | 0.00 | 0.00 | 93 | 1012.7 |
| 20260506011823 | 55 | 35 | 4.0 | 4.0 | 0.00 | 0.00 | 0.00 | 93 | 1012.8 |
| 20260506011320 | 56 | 17 | 7.0 | 8.0 | 0.00 | 0.00 | 0.00 | 93 | 1012.7 |
| 20260506010817 | 56 | 350 | 7.0 | 8.0 | 0.00 | 0.00 | 0.00 | 92 | 1012.7 |
| 20260506010315 | 56 | 21 | 6.0 | 8.0 | 0.00 | 0.00 | 0.00 | 92 | 1012.7 |
| 20260506005812 | 56 | 49 | 4.0 | 6.0 | 0.00 | 0.00 | 0.00 | 92 | 1012.7 |
| 20260506005309 | 56 | 353 | 4.0 | 6.0 | 0.00 | 0.00 | 0.00 | 92 | 1012.7 |
| 20260506004805 | 56 | 333 | 7.0 | 8.0 | 0.00 | 0.00 | 0.00 | 91 | 1012.8 |
| 20260506004303 | 56 | 26 | 6.0 | 6.0 | 0.00 | 0.00 | 0.00 | 91 | 1012.9 |
| 20260506003759 | 56 | 349 | 3.0 | 3.0 | 0.00 | 0.00 | 0.00 | 92 | 1012.8 |
| 20260506003256 | 56 | 49 | 4.0 | 6.0 | 0.00 | 0.00 | 0.00 | 92 | 1012.6 |
| 20260506002751 | 56 | 31 | 3.0 | 3.0 | 0.00 | 0.00 | 0.00 | 91 | 1012.6 |
| 20260506002248 | 57 | 29 | 5.0 | 7.0 | 0.00 | 0.00 | 0.00 | 91 | 1012.6 |
| 20260506001743 | 57 | 352 | 8.0 | 11.0 | 0.00 | 0.00 | 0.00 | 91 | 1012.5 |
| 20260506001241 | 57 | 9 | 5.0 | 7.0 | 0.00 | 0.00 | 0.00 | 91 | 1012.7 |
| 20260506000738 | 57 | 21 | 7.0 | 8.0 | 0.00 | 0.00 | 0.00 | 92 | 1012.4 |
| 20260506000235 | 57 | 24 | 6.0 | 7.0 | 0.00 | 0.00 | 0.00 | 91 | 1012.6 |
| 20260505235732 | 57 | 21 | 6.0 | 7.0 | 0.00 | 0.00 | 0.00 | 91 | 1012.8 |
| 20260505235230 | 57 | 338 | 6.0 | 7.0 | 0.00 | 0.00 | 0.00 | 91 | 1012.7 |
| 20260505234726 | 57 | 37 | 7.0 | 7.0 | 0.00 | 0.00 | 0.00 | 91 | 1012.6 |
| 20260505234224 | 58 | 27 | 8.0 | 9.0 | 0.00 | 0.00 | 0.00 | 90 | 1012.7 |
| 20260505233720 | 58 | 26 | 6.0 | 7.0 | 0.00 | 0.00 | 0.00 | 90 | 1012.5 |
| 20260505233219 | 58 | 23 | 8.0 | 10.0 | 0.00 | 0.00 | 0.00 | 90 | 1012.5 |
| 20260505232715 | 58 | 19 | 6.0 | 7.0 | 0.00 | 0.00 | 0.00 | 89 | 1012.7 |
| 20260505232213 | 58 | 75 | 5.0 | 8.0 | 0.00 | 0.00 | 0.00 | 88 | 1012.7 |
| 20260505231709 | 58 | 29 | 2.0 | 3.0 | 0.00 | 0.00 | 0.00 | 88 | 1012.7 |
| 20260505231209 | 58 | 26 | 4.0 | 4.0 | 0.00 | 0.00 | 0.00 | 88 | 1012.2 |
| 20260505230706 | 58 | 28 | 4.0 | 6.0 | 0.00 | 0.00 | 0.00 | 88 | 1012.1 |
| 20260505230203 | 58 | 1 | 5.0 | 6.0 | 0.00 | 0.00 | 0.00 | 88 | 1012.1 |
| 20260505225659 | 58 | 6 | 4.0 | 6.0 | 0.00 | 0.00 | 0.00 | 87 | 1012.1 |
| 20260505225156 | 58 | 15 | 9.0 | 11.0 | 0.00 | 0.00 | 0.00 | 87 | 1011.8 |
| 20260505224651 | 59 | 349 | 6.0 | 9.0 | 0.00 | 0.00 | 0.00 | 87 | 1012.0 |
| 20260505224149 | 59 | 40 | 4.0 | 6.0 | 0.00 | 0.00 | 0.00 | 87 | 1012.1 |
| 20260505223646 | 59 | 33 | 4.0 | 6.0 | 0.00 | 0.00 | 0.00 | 87 | 1012.1 |
| 20260505223142 | 59 | 0 | 7.0 | 9.0 | 0.00 | 0.00 | 0.00 | 87 | 1011.9 |
| 20260505222638 | 59 | 50 | 3.0 | 6.0 | 0.00 | 0.00 | 0.00 | 87 | 1011.9 |
| 20260505222135 | 59 | 20 | 5.0 | 8.0 | 0.00 | 0.00 | 0.00 | 87 | 1011.9 |
| 20260505221632 | 59 | 28 | 5.0 | 6.0 | 0.00 | 0.00 | 0.00 | 86 | 1011.9 |
| 20260505221129 | 59 | 308 | 5.0 | 7.0 | 0.00 | 0.00 | 0.00 | 86 | 1011.8 |
| 20260505220626 | 59 | 35 | 7.0 | 8.0 | 0.00 | 0.00 | 0.00 | 86 | 1011.8 |
| 20260505220123 | 59 | 9 | 7.0 | 9.0 | 0.00 | 0.00 | 0.00 | 86 | 1011.9 |
| 20260505215621 | 59 | 37 | 5.0 | 7.0 | 0.00 | 0.00 | 0.00 | 86 | 1011.7 |
| 20260505215119 | 59 | 22 | 6.0 | 9.0 | 0.00 | 0.00 | 0.00 | 86 | 1011.7 |
| 20260505214617 | 59 | 11 | 6.0 | 8.0 | 0.00 | 0.00 | 0.00 | 85 | 1011.7 |
| 20260505214114 | 59 | 55 | 2.0 | 3.0 | 0.00 | 0.00 | 0.00 | 85 | 1011.7 |
| 20260505213611 | 59 | 6 | 3.0 | 4.0 | 0.00 | 0.00 | 0.00 | 84 | 1011.5 |
| 20260505213108 | 60 | 3 | 6.0 | 8.0 | 0.00 | 0.00 | 0.00 | 84 | 1011.4 |
| 20260505212604 | 60 | 0 | 4.0 | 7.0 | 0.00 | 0.00 | 0.00 | 83 | 1011.3 |
| 20260505212102 | 60 | 31 | 5.0 | 7.0 | 0.00 | 0.00 | 0.00 | 82 | 1011.1 |
| 20260505211558 | 60 | 20 | 7.0 | 10.0 | 0.00 | 0.00 | 0.00 | 81 | 1011.4 |
| 20260505211056 | 60 | 358 | 5.0 | 6.0 | 0.00 | 0.00 | 0.00 | 80 | 1011.2 |
| 20260505210552 | 61 | 327 | 8.0 | 10.0 | 0.00 | 0.00 | 0.00 | 80 | 1011.0 |
| 20260505210049 | 61 | 349 | 4.0 | 4.0 | 0.00 | 0.00 | 0.00 | 79 | 1011.0 |
| 20260505205547 | 61 | 309 | 6.0 | 8.0 | 0.00 | 0.00 | 0.00 | 79 | 1011.2 |
| 20260505205044 | 61 | 334 | 8.0 | 11.0 | 0.00 | 0.00 | 0.00 | 78 | 1011.0 |
| 20260505204541 | 62 | 336 | 6.0 | 9.0 | 0.00 | 0.00 | 0.00 | 76 | 1010.8 |
| 20260505204039 | 62 | 297 | 4.0 | 6.0 | 0.00 | 0.00 | 0.00 | 75 | 1010.7 |
| 20260505203535 | 62 | 344 | 9.0 | 10.0 | 0.00 | 0.00 | 0.00 | 75 | 1011.0 |
| 20260505203032 | 62 | 25 | 7.0 | 10.0 | 0.00 | 0.00 | 0.00 | 75 | 1010.9 |
| 20260505202528 | 63 | 326 | 5.0 | 6.0 | 0.00 | 0.00 | 0.00 | 74 | 1010.7 |
| 20260505202024 | 63 | 317 | 6.0 | 8.0 | 0.00 | 0.00 | 0.00 | 73 | 1010.7 |
| 20260505201521 | 63 | 321 | 4.0 | 6.0 | 0.00 | 0.00 | 0.00 | 73 | 1010.4 |
| 20260505201019 | 63 | 10 | 6.0 | 8.0 | 0.00 | 0.00 | 0.00 | 73 | 1010.6 |
| 20260505200517 | 64 | 336 | 2.0 | 3.0 | 0.00 | 0.00 | 0.00 | 73 | 1010.4 |
| 20260505200013 | 64 | 357 | 4.0 | 7.0 | 0.00 | 0.00 | 0.00 | 72 | 1010.4 |
| 20260505195509 | 64 | 357 | 4.0 | 6.0 | 0.00 | 0.00 | 0.00 | 72 | 1010.1 |
| 20260505195007 | 65 | 304 | 7.0 | 9.0 | 0.00 | 0.00 | 0.00 | 72 | 1010.0 |
| 20260505194504 | 65 | 329 | 7.0 | 8.0 | 0.00 | 0.00 | 0.00 | 72 | 1010.1 |
| 20260505194004 | 65 | 80 | 3.0 | 4.0 | 0.00 | 0.00 | 0.00 | 72 | 1010.0 |
| 20260505193502 | 65 | 340 | 5.0 | 9.0 | 0.00 | 0.00 | 0.00 | 72 | 1010.0 |
| 20260505192959 | 65 | 28 | 3.0 | 6.0 | 0.00 | 0.00 | 0.00 | 72 | 1010.1 |
| 20260505192458 | 65 | 355 | 8.0 | 11.0 | 0.00 | 0.00 | 0.00 | 72 | 1010.0 |
| 20260505191954 | 65 | 340 | 9.0 | 14.0 | 0.00 | 0.00 | 0.00 | 72 | 1009.9 |
| 20260505191453 | 65 | 44 | 9.0 | 11.0 | 0.00 | 0.00 | 0.00 | 72 | 1010.0 |
| 20260505190950 | 66 | 332 | 7.0 | 10.0 | 0.00 | 0.00 | 0.00 | 71 | 1009.9 |
| 20260505190444 | 66 | 13 | 5.0 | 7.0 | 0.00 | 0.00 | 0.00 | 71 | 1009.7 |
| 20260505185940 | 67 | 333 | 8.0 | 10.0 | 0.00 | 0.00 | 0.00 | 70 | 1009.7 |
| 20260505185438 | 67 | 57 | 3.0 | 4.0 | 0.00 | 0.00 | 0.00 | 69 | 1009.6 |
| 20260505184934 | 67 | 338 | 4.0 | 4.0 | 0.00 | 0.00 | 0.00 | 68 | 1009.6 |
| 20260505184431 | 67 | 105 | 3.0 | 4.0 | 0.00 | 0.00 | 0.00 | 66 | 1009.6 |
| 20260505183928 | 68 | 359 | 4.0 | 4.0 | 0.00 | 0.00 | 0.00 | 66 | 1009.6 |
| 20260505183425 | 68 | 311 | 3.0 | 6.0 | 0.00 | 0.00 | 0.00 | 65 | 1009.7 |
| 20260505182921 | 68 | 299 | 5.0 | 7.0 | 0.00 | 0.00 | 0.00 | 64 | 1009.4 |
| 20260505182418 | 69 | 327 | 5.0 | 7.0 | 0.00 | 0.00 | 0.00 | 63 | 1009.2 |
| 20260505181915 | 69 | 343 | 5.0 | 8.0 | 0.00 | 0.00 | 0.00 | 63 | 1009.4 |
| 20260505181412 | 69 | 353 | 3.0 | 4.0 | 0.00 | 0.00 | 0.00 | 63 | 1009.2 |
| 20260505180909 | 69 | 305 | 6.0 | 7.0 | 0.00 | 0.00 | 0.00 | 62 | 1009.2 |
| 20260505180405 | 69 | 332 | 4.0 | 7.0 | 0.00 | 0.00 | 0.00 | 61 | 1009.1 |
| 20260505175902 | 69 | 319 | 6.0 | 8.0 | 0.00 | 0.00 | 0.00 | 61 | 1009.3 |
| 20260505175358 | 70 | 10 | 8.0 | 9.0 | 0.00 | 0.00 | 0.00 | 60 | 1009.0 |
| 20260505174854 | 70 | 334 | 6.0 | 10.0 | 0.00 | 0.00 | 0.00 | 60 | 1009.2 |
| 20260505174352 | 70 | 285 | 4.0 | 7.0 | 0.00 | 0.00 | 0.00 | 60 | 1009.1 |
| 20260505173848 | 69 | 296 | 5.0 | 7.0 | 0.00 | 0.00 | 0.00 | 61 | 1009.2 |
| 20260505173345 | 68 | 63 | 2.0 | 3.0 | 0.00 | 0.00 | 0.00 | 68 | 1009.4 |
| 20260505172842 | 67 | 79 | 0.0 | 1.0 | 0.00 | 0.00 | 0.00 | 67 | 1009.4 |
| 20260505172340 | 67 | 95 | 1.0 | 2.0 | 0.00 | 0.00 | 0.00 | 67 | 1009.2 |
| 20260505171839 | 67 | 126 | 2.0 | 2.0 | 0.00 | 0.00 | 0.00 | 66 | 1009.2 |
| 20260505171336 | 66 | 119 | 3.0 | 3.0 | 0.00 | 0.00 | 0.00 | 68 | 1009.2 |
| 20260505170833 | 67 | 119 | 2.0 | 2.0 | 0.00 | 0.00 | 0.00 | 68 | 1009.2 |
| 20260505170330 | 66 | 134 | 2.0 | 3.0 | 0.00 | 0.00 | 0.00 | 66 | 1009.3 |
| 20260505165825 | 66 | 132 | 2.0 | 2.0 | 0.00 | 0.00 | 0.00 | 68 | 1009.4 |
| 20260505165321 | 67 | 130 | 2.0 | 2.0 | 0.00 | 0.00 | 0.00 | 66 | 1009.2 |
| 20260505164816 | 67 | 129 | 1.0 | 1.0 | 0.00 | 0.00 | 0.00 | 65 | 1009.2 |
| 20260505164313 | 66 | 129 | 0.0 | 0.0 | 0.00 | 0.00 | 0.00 | 67 | 1009.4 |
| 20260505163812 | 66 | 129 | 2.0 | 2.0 | 0.00 | 0.00 | 0.00 | 67 | 1009.3 |
| 20260505163310 | 66 | 129 | 1.0 | 1.0 | 0.00 | 0.00 | 0.00 | 66 | 1009.4 |
| 20260505162808 | 66 | 129 | 1.0 | 1.0 | 0.00 | 0.00 | 0.00 | 67 | 1009.3 |
| 20260505162306 | 65 | 129 | 1.0 | 1.0 | 0.00 | 0.00 | 0.00 | 67 | 1009.7 |
| 20260505161801 | 65 | 129 | 2.0 | 2.0 | 0.00 | 0.00 | 0.00 | 68 | 1009.3 |
| 20260505161258 | 65 | 128 | 2.0 | 2.0 | 0.00 | 0.00 | 0.00 | 69 | 1009.2 |
| 20260505160756 | 64 | 129 | 1.0 | 2.0 | 0.00 | 0.00 | 0.00 | 69 | 1009.5 |
| 20260505160253 | 64 | 146 | 3.0 | 3.0 | 0.00 | 0.00 | 0.00 | 69 | 1009.1 |
| 20260505153232 | 62 | 125 | 1.0 | 1.0 | 0.00 | 0.00 | 0.00 | 70 | 1009.6 |
| 20260505152729 | 61 | 134 | 2.0 | 2.0 | 0.00 | 0.00 | 0.00 | 73 | 1009.7 |
| 20260505152226 | 62 | 133 | 3.0 | 3.0 | 0.00 | 0.00 | 0.00 | 71 | 1009.7 |
| 20260505151720 | 61 | 128 | 0.0 | 0.0 | 0.00 | 0.00 | 0.00 | 72 | 1009.7 |
| 20260505151218 | 60 | 117 | 0.0 | 1.0 | 0.00 | 0.00 | 0.00 | 72 | 1009.7 |
| 20260505150714 | 60 | 146 | 3.0 | 3.0 | 0.00 | 0.00 | 0.00 | 76 | 1009.9 |
| 20260505150212 | 59 | 131 | 2.0 | 3.0 | 0.00 | 0.00 | 0.00 | 76 | 1009.7 |
| 20260505140644 | 57 | 112 | 2.0 | 2.0 | 0.00 | 0.00 | 0.00 | 84 | 1010.3 |
| 20260505140142 | 57 | 121 | 1.0 | 2.0 | 0.00 | 0.00 | 0.00 | 82 | 1010.2 |
| 20260505130105 | 55 | 78 | 1.0 | 1.0 | 0.00 | 0.00 | 0.00 | 84 | 1010.4 |
| 20260505124555 | 54 | 151 | 2.0 | 2.0 | 0.00 | 0.00 | 0.00 | 84 | 1010.3 |
| 20260505124051 | 54 | 138 | 1.0 | 1.0 | 0.00 | 0.00 | 0.00 | 85 | 1010.4 |
| 20260505123547 | 54 | 73 | 1.0 | 1.0 | 0.00 | 0.00 | 0.00 | 85 | 1010.4 |
| 20260505123044 | 53 | 302 | 2.0 | 2.0 | 0.00 | 0.00 | 0.00 | 85 | 1010.2 |
| 20260505122541 | 54 | 188 | 2.0 | 2.0 | 0.00 | 0.00 | 0.00 | 85 | 1010.2 |
| 20260505122038 | 55 | 122 | 2.0 | 2.0 | 0.00 | 0.00 | 0.00 | 82 | 1010.4 |
| 20260505121534 | 56 | 87 | 0.0 | 0.0 | 0.00 | 0.00 | 0.00 | 77 | 1010.7 |
| 20260505121031 | 56 | 77 | 1.0 | 1.0 | 0.00 | 0.00 | 0.00 | 77 | 1010.4 |
| 20260505120528 | 55 | 67 | 0.0 | 0.0 | 0.00 | 0.00 | 0.00 | 79 | 1010.4 |
| 20260505120023 | 54 | 86 | 0.0 | 0.0 | 0.00 | 0.00 | 0.00 | 84 | 1010.3 |
| 20260505115518 | 53 | 307 | 2.0 | 4.0 | 0.00 | 0.00 | 0.00 | 87 | 1010.6 |
| 20260505115016 | 52 | 16 | 1.0 | 2.0 | 0.00 | 0.00 | 0.00 | 88 | 1010.1 |
| 20260505114513 | 52 | 320 | 1.0 | 2.0 | 0.00 | 0.00 | 0.00 | 90 | 1010.2 |
| 20260505114009 | 52 | 261 | 2.0 | 3.0 | 0.00 | 0.00 | 0.00 | 90 | 1010.1 |
| 20260505113506 | 52 | 22 | 5.0 | 6.0 | 0.00 | 0.00 | 0.00 | 90 | 1010.7 |
| 20260505113001 | 51 | 183 | 6.0 | 7.0 | 0.00 | 0.00 | 0.00 | 90 | 1009.6 |
| 20260505112458 | 52 | 100 | 0.0 | 0.0 | 0.00 | 0.00 | 0.00 | 90 | 1010.7 |
| 20260505111955 | 51 | 116 | 0.0 | 0.0 | 0.00 | 0.00 | 0.00 | 90 | 1010.4 |
| 20260505111450 | 51 | 132 | 1.0 | 1.0 | 0.00 | 0.00 | 0.00 | 90 | 1010.9 |
| 20260505110947 | 51 | 81 | 0.0 | 0.0 | 0.00 | 0.00 | 0.00 | 90 | 1011.6 |
| 20260505110444 | 51 | 92 | 1.0 | 1.0 | 0.00 | 0.00 | 0.00 | 90 | 1011.2 |
| 20260505101915 | 51 | 125 | 0.0 | 0.0 | 0.00 | 0.00 | 0.00 | 91 | 1012.4 |
| 20260505101414 | 51 | 125 | 0.0 | 1.0 | 0.00 | 0.00 | 0.00 | 91 | 1012.3 |
| 20260505100910 | 51 | 105 | 0.0 | 0.0 | 0.00 | 0.00 | 0.00 | 91 | 1012.3 |
| 20260505100407 | 51 | 105 | 0.0 | 0.0 | 0.00 | 0.00 | 0.00 | 91 | 1012.2 |
| 20260505095903 | 51 | 102 | 0.0 | 0.0 | 0.00 | 0.00 | 0.00 | 90 | 1012.4 |
| 20260505095400 | 51 | 102 | 0.0 | 0.0 | 0.00 | 0.00 | 0.00 | 90 | 1012.0 |
| 20260505094856 | 51 | 132 | 0.0 | 1.0 | 0.00 | 0.00 | 0.00 | 90 | 1012.2 |
| 20260505094354 | 51 | 140 | 1.0 | 1.0 | 0.00 | 0.00 | 0.00 | 90 | 1012.0 |
| 20260505093849 | 51 | 125 | 0.0 | 0.0 | 0.00 | 0.00 | 0.00 | 90 | 1012.0 |
| 20260505093347 | 52 | 125 | 0.0 | 0.0 | 0.00 | 0.00 | 0.00 | 90 | 1011.8 |
| 20260505092844 | 52 | 130 | 0.0 | 0.0 | 0.00 | 0.00 | 0.00 | 91 | 1011.3 |
| 20260505092342 | 51 | 130 | 0.0 | 0.0 | 0.00 | 0.00 | 0.00 | 90 | 1011.2 |
| 20260505091839 | 51 | 131 | 0.0 | 1.0 | 0.00 | 0.00 | 0.00 | 90 | 1011.2 |
| 20260505091337 | 52 | 121 | 1.0 | 1.0 | 0.00 | 0.00 | 0.00 | 91 | 1011.2 |
| 20260505090834 | 52 | 112 | 0.0 | 0.0 | 0.00 | 0.00 | 0.00 | 91 | 1011.2 |
| 20260505090333 | 52 | 112 | 0.0 | 0.0 | 0.00 | 0.00 | 0.00 | 91 | 1011.0 |
| 20260505085829 | 52 | 112 | 0.0 | 0.0 | 0.00 | 0.00 | 0.00 | 91 | 1011.1 |
| 20260505085327 | 52 | 112 | 0.0 | 0.0 | 0.00 | 0.00 | 0.00 | 91 | 1011.0 |
| 20260505084825 | 52 | 112 | 0.0 | 0.0 | 0.00 | 0.00 | 0.00 | 91 | 1011.1 |
| 20260505084323 | 52 | 113 | 0.0 | 0.0 | 0.00 | 0.00 | 0.00 | 90 | 1011.0 |
| 20260505083820 | 52 | 112 | 0.0 | 0.0 | 0.00 | 0.00 | 0.00 | 90 | 1010.7 |
| 20260505083317 | 52 | 89 | 0.0 | 0.0 | 0.00 | 0.00 | 0.00 | 90 | 1010.5 |
| 20260505082814 | 52 | 89 | 0.0 | 0.0 | 0.00 | 0.00 | 0.00 | 90 | 1010.7 |
| 20260505082311 | 52 | 95 | 0.0 | 0.0 | 0.00 | 0.00 | 0.00 | 91 | 1010.8 |
| 20260505081807 | 52 | 117 | 0.0 | 0.0 | 0.00 | 0.00 | 0.00 | 91 | 1010.9 |
| 20260505081304 | 52 | 117 | 0.0 | 0.0 | 0.00 | 0.00 | 0.00 | 91 | 1010.7 |
| 20260505080800 | 53 | 117 | 0.0 | 0.0 | 0.00 | 0.00 | 0.00 | 91 | 1010.9 |
| 20260505080256 | 53 | 117 | 0.0 | 0.0 | 0.00 | 0.00 | 0.00 | 91 | 1010.7 |
| 20260505075752 | 53 | 117 | 0.0 | 0.0 | 0.00 | 0.00 | 0.00 | 91 | 1010.6 |
| 20260505075249 | 53 | 117 | 0.0 | 0.0 | 0.00 | 0.00 | 0.00 | 91 | 1011.1 |
| 20260505074746 | 53 | 117 | 0.0 | 0.0 | 0.00 | 0.00 | 0.00 | 91 | 1011.0 |
| 20260505074243 | 53 | 117 | 0.0 | 0.0 | 0.00 | 0.00 | 0.00 | 91 | 1011.0 |
| 20260505073741 | 52 | 117 | 0.0 | 0.0 | 0.00 | 0.00 | 0.00 | 91 | 1010.9 |
| 20260505073238 | 52 | 117 | 0.0 | 1.0 | 0.00 | 0.00 | 0.00 | 91 | 1010.8 |
| 20260505072735 | 52 | 117 | 0.0 | 0.0 | 0.00 | 0.00 | 0.00 | 91 | 1010.8 |
| 20260505072231 | 52 | 117 | 0.0 | 0.0 | 0.00 | 0.00 | 0.00 | 91 | 1011.0 |
| 20260505071727 | 52 | 117 | 0.0 | 0.0 | 0.00 | 0.00 | 0.00 | 91 | 1011.0 |
| 20260505071224 | 52 | 117 | 0.0 | 0.0 | 0.00 | 0.00 | 0.00 | 91 | 1011.3 |
| 20260505070722 | 52 | 117 | 0.0 | 0.0 | 0.00 | 0.00 | 0.00 | 90 | 1011.4 |
| 20260505070218 | 52 | 113 | 0.0 | 0.0 | 0.00 | 0.00 | 0.00 | 91 | 1011.5 |
| 20260505065714 | 52 | 90 | 0.0 | 1.0 | 0.00 | 0.00 | 0.00 | 90 | 1011.2 |
| 20260505065211 | 53 | 133 | 1.0 | 1.0 | 0.00 | 0.00 | 0.00 | 90 | 1011.2 |
| 20260505064708 | 53 | 133 | 0.0 | 0.0 | 0.00 | 0.00 | 0.00 | 90 | 1011.3 |
| 20260505064206 | 53 | 133 | 0.0 | 0.0 | 0.00 | 0.00 | 0.00 | 89 | 1011.6 |
| 20260505063703 | 53 | 133 | 0.0 | 0.0 | 0.00 | 0.00 | 0.00 | 89 | 1011.5 |
| 20260505063159 | 53 | 133 | 0.0 | 1.0 | 0.00 | 0.00 | 0.00 | 88 | 1011.6 |
| 20260505062655 | 54 | 133 | 0.0 | 0.0 | 0.00 | 0.00 | 0.00 | 88 | 1011.5 |
| 20260505062153 | 54 | 133 | 0.0 | 0.0 | 0.00 | 0.00 | 0.00 | 88 | 1011.6 |
| 20260505061650 | 54 | 133 | 0.0 | 0.0 | 0.00 | 0.00 | 0.00 | 87 | 1011.5 |
| 20260505061148 | 54 | 133 | 0.0 | 0.0 | 0.00 | 0.00 | 0.00 | 87 | 1011.2 |
| 20260505060645 | 53 | 133 | 0.0 | 0.0 | 0.00 | 0.00 | 0.00 | 88 | 1011.5 |
| 20260505060142 | 54 | 133 | 0.0 | 1.0 | 0.00 | 0.00 | 0.00 | 88 | 1011.6 |
| 20260505055637 | 54 | 133 | 0.0 | 1.0 | 0.00 | 0.00 | 0.00 | 88 | 1011.4 |
| 20260505055134 | 53 | 133 | 1.0 | 1.0 | 0.00 | 0.00 | 0.00 | 88 | 1011.3 |
| 20260505054631 | 53 | 131 | 0.0 | 1.0 | 0.00 | 0.00 | 0.00 | 87 | 1011.6 |